Location: Azul
(36.7830°S, 59.8500°W)
Time: 08:58:58
(UTC-03:00)

UWE-3 - Pass Details

Date: 23 October 2021
Orbit: 584 x 681 km, 97.7° (Epoch: 06 December)

Event Time Altitude Azimuth Distance (km) Brightness Sun altitude
Exits shadow 03:39:59 19° 49° (NE) 1,492 ? -26.4°
Maximum altitude 03:42:38 39° 108° (ESE) 952 ? -26.0°
Drops below altitude 10° 03:46:46 10° 176° (S) 2,048 ? -25.3°
Sets 03:49:08 0° 183° (S) 2,982 ? -25.0°
